Other Public Products
Issued by NWS Grand Forks, ND

Home | Current Version | Previous Version | Graphics & Text | Print | Product List | Glossary On
Versions: 1 2 3 4 5 6 7 8 9 10 11 12 13 14 15 16 17 18 19 20 21 22 23 24 25 26 27 28 29 30 31 32 33 34 35 36 37 38 39 40 41 42 43 44 45 46 47 48 49 50
000
FPUS83 KFGF 240010
OPUFGF
PRAIRIE TO PINES WEATHER ROUNDUP
NATIONAL WEATHER SERVICE EASTERN NORTH DAKOTA/GRAND FORKS ND
700 PM CDT SAT JUL 23 2016

 **SATELLITE DATA USED TO AUGMENT SKY COVER AT AUTOMATED STATIONS**
 *****  WEATHER ACROSS EASTERN NORTH DAKOTA  *****

CITY           SKY/WX    TMP DP  RH WIND       PRES   REMARKS
GRAND FORKS    PTSUNNY   71  68  90 NW5       29.71F
6HR MIN TEMP:  65; 6HR MAX TEMP:  74; 6HR PCP:  0.41;

GRAND FORKS AF CLOUDY    69  68  94 NW3       29.72F
GRAND CITY NWS   N/A     70 N/A N/A NW5         N/A
BUXTON           N/A     79  76  90 NE3         N/A
DEVILS LAKE    CLOUDY    74  70  87 W6        29.75F
6HR MIN TEMP:  69; 6HR MAX TEMP:  76; 6HR PCP:  0.01;

FARGO          CLOUDY    82  72  71 S9        29.69S
6HR MIN TEMP:  73; 6HR MAX TEMP:  84; 6HR PCP: TRACE;

WAHPETON ARPT  MOCLDY    79  70  73 SE12      29.72R
$$

 *****  WEATHER ACROSS CENTRAL AND WESTERN NORTH DAKOTA  *****

CITY           SKY/WX    TMP DP  RH WIND       PRES   REMARKS
JAMESTOWN      CLOUDY    77  69  76 NW12      29.76R
6HR MIN TEMP:  72; 6HR MAX TEMP:  79;

BISMARCK       SUNNY     84  51  31 W14G22    29.81S
6HR MIN TEMP:  76; 6HR MAX TEMP:  85;

MINOT          SUNNY     83  54  36 W16G29    29.77R
6HR MIN TEMP:  73; 6HR MAX TEMP:  86;

MINOT AFB      SUNNY     79  56  44 W14G28    29.76R
6HR MIN TEMP:  71; 6HR MAX TEMP:  80;

GARRISON         N/A     80  55  42 W12       29.80S
6HR MIN TEMP:  72; 6HR MAX TEMP:  81;

WILLISTON      SUNNY     78  53  41 NW22G30   29.87R
6HR MIN TEMP:  78; 6HR MAX TEMP:  83;

DICKINSON      SUNNY     79  44  28 W17       29.87S
6HR MIN TEMP:  77; 6HR MAX TEMP:  82;

HETTINGER      SUNNY     85  41  21 NW22G31   29.91S
6HR MIN TEMP:  83; 6HR MAX TEMP:  88;

$$

 *****  OTHER OBSERVATIONS NORTHEAST NORTH DAKOTA  *****

CITY           SKY/WX    TMP DP  RH WIND       PRES   REMARKS
WALHALLA       NOT AVBL
LANGDON        CLOUDY    72  70  94 S9        29.74F
CAVALIER       MOCLDY    73  68  83 S9        29.70F
GRAFTON        MOCLDY    73  70  88 SW6       29.72F
CANDO          NOT AVBL
FORT TOTTEN      N/A     76  70  82 W3        29.95S
ROLLA            N/A     75  64  69 W13       29.75S
RUGBY          NOT AVBL
 ***** THE ABOVE OBSERVATIONS ARE NON NWS ARE NOT QUALITY
        CONTROLLED AND MAY MIS-REPORT RAIN FOR SNOW...
$$

 *****  OTHER OBSERVATIONS SOUTHEAST NORTH DAKOTA *****

CITY           SKY/WX    TMP DP  RH WIND       PRES   REMARKS
COOPERSTOWN    NOT AVBL
VALLEY CITY    FAIR      79  73  83 W9        29.77S
OAKES            N/A    N/A N/A N/A MISG        N/A
GWINNER        MOCLDY    84  75  74 W7        29.73R HX  92
SHEYENNE NWR     N/A     84  74  71 SW6       29.95S HX  91
BUFFALO          N/A     79  68  69 NW10        N/A
WYNDMERE         N/A     82  75  78 S8          N/A
 ***** THE ABOVE OBSERVATIONS ARE NON NWS ARE NOT QUALITY
       CONTROLLED AND MAY MIS-REPORT RAIN FOR SNOW...
$$

  *****  WEATHER ACROSS NORTHERN MINNESOTA  *****

CITY           SKY/WX    TMP DP  RH WIND       PRES   REMARKS
FLAG ISLAND      N/A     73  66  78 E9        29.70F
WARROAD        CLOUDY    75  72  88 S5        29.73S
ROSEAU         MOSUNNY   73  66  78 SW5       29.72F
HALLOCK        CLOUDY    73  70  88 SW3       29.70F
THF RVR FALLS  CLOUDY    73  71  93 CALM      29.73F
6HR MIN TEMP:  66; 6HR MAX TEMP:  77; 6HR PCP:  0.42;

HALSTAD        NOT AVBL
FOSSTON        CLOUDY    75  68  78 S5        29.75S
BAUDETTE       CLOUDY    76  71  85 SE6       29.72F
6HR MIN TEMP:  71; 6HR MAX TEMP:  77; 6HR PCP:  0.07;

WASKISH        SUNNY     79  70  73 SE6       29.75F
CROOKSTON      SUNNY     79  72  78 CALM      29.71F
$$
  *****  WEATHER ACROSS CENTRAL AND WEST MINNESOTA  *****

CITY           SKY/WX    TMP DP  RH WIND       PRES   REMARKS
BEMIDJI        CLOUDY    75  68  78 S9        29.77F
PARK RAPIDS    CLOUDY    79  69  71 S9        29.78R
6HR MIN TEMP:  72; 6HR MAX TEMP:  80; 6HR PCP:  0.14;

WADENA         MOSUNNY   79  70  73 SE12      29.77S
DETROIT LAKES  CLOUDY    77  70  78 S9        29.76F
MOORHEAD       MOSUNNY   82  72  69 S7        29.71S
FERGUS FALLS   MOSUNNY   79  72  78 S12       29.74R
ELBOW LAKE     FAIR      79  73  82 SE14      29.73F
MORRIS MN      MOSUNNY   81  73  78 SE14G20   29.73F
STAPLES        PTSUNNY   79  68  69 SE8       29.78S
WHEATON        SUNNY     82  75  78 SE12G18   29.72F
$$
  *****  WEATHER ELSEWHERE ACROSS MINNESOTA  *****

CITY           SKY/WX    TMP DP  RH WIND       PRES   REMARKS
DULUTH         PTSUNNY   71  64  78 SE8       29.86F
6HR MIN TEMP:  68; 6HR MAX TEMP:  73;

INTRNTL FALLS  CLOUDY    76  65  68 SE10      29.77S
6HR MIN TEMP:  76; 6HR MAX TEMP:  79;

ELY            CLOUDY    72  61  68 S7        29.87S
CLOQUET        CLOUDY    70  63  78 E6        29.86F
BRAINERD       PTSUNNY   73  68  84 SE9       29.80S
6HR MIN TEMP:  70; 6HR MAX TEMP:  78; 6HR PCP:  0.29;

HIBBING        MOSUNNY   73  66  78 S7        29.83F
6HR MIN TEMP:  71; 6HR MAX TEMP:  76;

ALEXANDRIA     PTSUNNY   79  71  76 SE12      29.78S
6HR MIN TEMP:  70; 6HR MAX TEMP:  80; 6HR PCP:  0.01;

SAINT CLOUD    SUNNY     76  71  85 SE10      29.77F
6HR MIN TEMP:  69; 6HR MAX TEMP:  77; 6HR PCP:  0.49;

MINNEAPOLIS    MOSUNNY   75  70  84 SE12      29.80F
6HR MIN TEMP:  71; 6HR MAX TEMP:  76; 6HR PCP:  0.87;

$$

  *****  WEATHER ACROSS SOUTH DAKOTA  *****

CITY           SKY/WX    TMP DP  RH WIND       PRES   REMARKS
SIOUX FALLS    MOSUNNY   90  72  55 SW8       29.74S HX  97
6HR MIN TEMP:  86; 6HR MAX TEMP:  91;

BROOKINGS      SUNNY     89  75  63 S6        29.74F HX  99
WATERTOWN      SUNNY     90  74  59 S10       29.73F HX  99
6HR MIN TEMP:  83; 6HR MAX TEMP:  91;

HURON          MOSUNNY   92  70  48 SW5       29.70R HX  97
6HR MIN TEMP:  87; 6HR MAX TEMP:  94;

SISSETON         N/A     83  77  82 SE10      29.69F HX  92
ABERDEEN       MOSUNNY   86  71  60 NW20G26   29.74R HX  91
6HR MIN TEMP:  84; 6HR MAX TEMP:  92;

MITCHELL       SUNNY     96  74  48 CALM      29.70F HX 107
PIERRE         SUNNY     88  59  37 NW20      29.81R
6HR MIN TEMP:  88; 6HR MAX TEMP:  95;

MOBRIDGE       SUNNY     87  52  29 NW14G24   29.81R
RAPID CITY     SUNNY     87  43  21 N16G24    29.94S
6HR MIN TEMP:  87; 6HR MAX TEMP:  90;

$$

  *****  SOME WEATHER IN NEARBY STATES *****

CITY           SKY/WX    TMP DP  RH WIND       PRES   REMARKS
GLASGOW MT     SUNNY     78  49  35 NW21G31   29.94R
6HR MIN TEMP:  75; 6HR MAX TEMP:  81;

GREAT FALLS MT PTSUNNY   77  39  25 SW13      30.03F
6HR MIN TEMP:  74; 6HR MAX TEMP:  82;

CHEYENNE WY    CLOUDY    78  46  32 E9        30.12R
6HR MIN TEMP:  78; 6HR MAX TEMP:  94; 6HR PCP: TRACE;

SCOTTSBLUFF NE CLOUDY    93  58  30 E13       29.94F HX  92
6HR MIN TEMP:  91; 6HR MAX TEMP:  99;

OMAHA NE       MOSUNNY   92  74  55 S16       29.76F HX 101
6HR MIN TEMP:  85; 6HR MAX TEMP:  93;

DES MOINES IA  MOSUNNY   90  77  65 S10       29.81S HX 103
6HR MIN TEMP:  87; 6HR MAX TEMP:  93; 6HR PCP: TRACE;

DAVENPORT IA   CLOUDY    85  79  82 SE7       29.89R HX  98
6HR MIN TEMP:  85; 6HR MAX TEMP:  89;

CHICAGO IL     TSTM      73  71  93 NE20G26   29.96R FOG
6HR MIN TEMP:  73; 6HR MAX TEMP:  91; 6HR PCP:  0.04;

EAU CLAIRE WI  LGT RAIN  71  70  96 E3        29.85F FOG
6HR MIN TEMP:  71; 6HR MAX TEMP:  75; 6HR PCP:  0.29;

LA CROSSE WI   CLOUDY    75  69  81 SE9       29.82F
6HR MIN TEMP:  72; 6HR MAX TEMP:  75; 6HR PCP:  0.52;

$$

  *****  SOME NATIONAL WEATHER *****

CITY           SKY/WX    TMP DP  RH WIND       PRES   REMARKS
LA GUARDIA NY  PTCLDY    95  59  30 NW10      29.80R HX  94
6HR MIN TEMP:  93; 6HR MAX TEMP:  99;                              C1F1C2F2C3F3C4F4C5F5C6F6C7F7C8F8C9F9CaFaCbFbCcFcCdFdCe!


USA.gov is the U.S. government's official web portal to all federal, state and local government web resources and services.